This demonstration page uses our WeatherBlox Daily Observations layout. Learn more.

Left ArrowRight Arrow

36.19886, -115.1175

Hourly Observations for February 23, 2021

Temp ( °F °C ) Dew Point ( °F °C ) Humidity (%) Winds ( mph kmh ) Pressure ( in mb ) Visibility ( mi km ) Precip ( " mm )
12:53 am 00:53 Clear 51 10.6 19 -7.2 28 28 N N/A 30.11 1020 10 16 N/A
1:53 am 01:53 Clear 48 8.9 18 -7.8 30 30 WNW 3 6 30.10 1019 10 16 N/A
2:53 am 02:53 Clear 51 10.6 19 -7.2 28 28 WNW 3 6 30.08 1019 10 16 N/A
3:53 am 03:53 Clear 49 9.4 19 -7.2 31 31 WNW 7 11 30.08 1019 10 16 N/A
4:53 am 04:53 Clear 50 10 19 -7.2 29 29 NW 13 20 30.09 1019 10 16 N/A
5:53 am 05:53 Clear 50 10 19 -7.2 29 29 WNW 10 17 30.09 1019 10 16 N/A
6:53 am 06:53 Sunny 53 11.7 19 -7.2 26 26 NW 9 15 30.09 1019 10 16 N/A
7:53 am 07:53 Sunny 56 13.3 20 -6.7 24 24 NW 13 20 30.10 1019 10 16 N/A
8:53 am 08:53 Sunny 57 13.9 21 -6.1 25 25 SSE 5 7 30.10 1019 10 16 N/A
9:53 am 09:53 Sunny 63 17.2 21 -6.1 20 20 ENE 3 6 30.09 1019 10 16 N/A
10:53 am 10:53 Sunny 65 18.3 22 -5.6 19 19 SE 5 7 30.06 1018 10 16 N/A
11:53 am 11:53 Sunny 68 20 22 -5.6 17 17 SE 7 11 30.03 1017 10 16 N/A
12:53 pm 12:53 Sunny 71 21.7 21 -6.1 15 15 N N/A 29.99 1016 10 16 N/A
1:53 pm 13:53 Sunny 73 22.8 21 -6.1 14 14 SE 7 11 29.96 1015 10 16 N/A
2:53 pm 14:53 Sunny 74 23.3 20 -6.7 13 13 SSE 6 9 29.95 1014 10 16 N/A
3:53 pm 15:53 Sunny 74 23.3 20 -6.7 13 13 SE 8 13 29.94 1014 10 16 N/A
4:53 pm 16:53 Sunny 73 22.8 19 -7.2 13 13 SE 5 7 29.95 1014 10 16 N/A
5:53 pm 17:53 Clear 72 22.2 19 -7.2 13 13 N N/A 29.96 1015 10 16 N/A
6:53 pm 18:53 Clear 70 21.1 10 -12.2 10 10 NW 17 28 29.96 1014 10 16 N/A
7:53 pm 19:53 Clear 69 20.6 8 -13.3 9 9 NW 10 17 29.97 1015 10 16 N/A
8:53 pm 20:53 Clear 63 17.2 8 -13.3 11 11 NNW 8 13 29.99 1016 10 16 N/A
9:53 pm 21:53 Clear 60 15.6 8 -13.3 12 12 N 10 17 30.00 1016 10 16 N/A
10:53 pm 22:53 Clear 59 15 4 -15.6 11 11 NNW 12 19 30.00 1016 10 16 N/A
11:53 pm 23:53 Clear 60 15.6 3 -16.1 10 10 NNW 13 20 29.99 1016 10 16 N/A

Powered by AerisWeather